Location: Quedlinburg
(51.7921°N, 11.1414°E)
Time: 08:46:16
(UTC+02:00)

SO-50 - Pass Details

Date: 10 March 2026
Orbit: 567 x 673 km, 64.6° (Epoch: 13 April)

Event Time Altitude Azimuth Distance (km) Brightness Sun altitude
Rises 21:09:24 0° 244° (WSW) 2,950 ? -27.2°
Reaches altitude 10° 21:11:46 10° 251° (WSW) 2,058 ? -27.5°
Maximum altitude 21:16:14 43° 323° (NW) 929 ? -28.1°
Enters shadow 21:17:54 31° 11° (N) 1,158 ? -28.3°
